Regional Weather Roundup
Issued by NWS

Home | Current Version | Previous Version | Text Only | Print | Product List | Glossary On
Versions: 1 2 3 4 5 6 7 8 9 10 11 12 13 14 15 16 17 18 19 20 21 22 23 24 25 26 27 28 29 30 31 32 33 34 35 36 37 38 39 40 41 42 43 44 45 46 47 48 49 50
000
ASUS43 KDTX 260301
RWRMI
MICHIGAN HOURLY REGIONAL WEATHER ROUNDUP
NATIONAL WEATHER SERVICE DETROIT/PONTIAC MI
1100 PM EDT MON JUL 25 2016

NOTE: "FAIR" INDICATES FEW OR NO CLOUDS BELOW 12,000 FEET WITH NO
SIGNIFICANT WEATHER AND/OR OBSTRUCTION TO VISIBILITY.

MIZ047>049-052>055-059>063-066>070-074>076-081>083-260400-
SOUTHEAST LOWER MICHIGAN

CITY           SKY/WX    TMP DP  RH WIND       PRES   REMARKS
ADRIAN         CLEAR     74  66  76 NW5       30.00R
ALMA           CLEAR     67  64  88 CALM      30.01S
ANN ARBOR      CLEAR     77  63  61 NW6       29.99R
BAD AXE        CLEAR     64  60  87 CALM      29.99R
CARO           CLEAR     71  62  72 NW5       29.98R
DETROIT CITY   CLEAR     81  62  52 NW5       29.97R
DETROIT        PTCLDY    79  61  53 NW6       29.98R
FLINT          CLEAR     76  59  55 NW7       29.99R
GROSSE ILE     CLEAR     78  65  63 N5        29.96S
HILLSDALE      CLOUDY    70  62  74 NW6       30.02R
HOWELL         CLEAR     72  59  64 NW5       30.00S

CITY           SKY/WX    TMP DP  RH WIND       PRES   REMARKS
JACKSON        CLEAR     71  66  84 W3        30.02R
LAMBERTVILLE   CLEAR     76  68  75 NW3       29.99R
LANSING        CLEAR     73  59  61 W5        30.01R
LAPEER         FAIR      72  60  67 NW7       29.99R
MASON          CLEAR     73  64  73 W8        30.01S
MONROE         CLEAR     73  69  89 CALM      29.97R
MT. CLEMENS    CLEAR     78  63  58 NW6       29.94S
PONTIAC        CLEAR     75  62  64 NW6       29.99R
PORT HURON     CLEAR     72  63  73 N7        29.97R
TRI CITIES     CLEAR     73  63  70 NW8       30.00R
MIDLAND        FAIR      66  61  82 CALM      29.99R
TROY           CLEAR     80  59  47 NW7       30.00R
SAGINAW HB     CLEAR     72  61  68 NW6       29.99R
$$
MIZ043>046-050>051-056>058-064>065-071>073-077>080-260400-
SOUTHWEST LOWER MICHIGAN

CITY           SKY/WX    TMP DP  RH WIND       PRES   REMARKS
BATTLE CREEK   CLEAR     67  63  87 W5        30.03R
BENTON HARBOR  CLEAR     69  65  86 CALM      30.02R
BIG RAPIDS     CLEAR     68  65  90 W3        30.01S
COLDWATER      CLOUDY    70  63  79 CALM      30.02R
FREMONT        FAIR      70  68  95 CALM      30.02R
HOLLAND        CLEAR     69  66  90 CALM      30.02S
GRAND RAPIDS   CLEAR     74  62  66 W7        30.02R
IONIA          FAIR      72  59  64 NW5       30.01R
KALAMAZOO      CLEAR     72  62  71 W3        30.02R
LUDINGTON      CLEAR     72  68  88 SW6       30.00S
MARSHALL       CLEAR     69  63  80 W3        30.02R
MOUNT PLEASANT CLEAR     72  61  69 CALM      30.00S
MUSKEGON       PTCLDY    69  67  93 CALM      30.01S
SOUTH HAVEN    CLEAR     66  66 100 CALM      30.02R
$$
MIZ016>042-260400-
NORTHERN LOWER MICHIGAN

CITY           SKY/WX    TMP DP  RH WIND       PRES   REMARKS
ALPENA         CLEAR     68  57  68 W3        29.97S
BEAVER ISLAND  CLEAR     61  60  96 CALM      29.98S
BELLAIRE       CLEAR     62  59  91 CALM      29.99R
CADILLAC       CLEAR     64  59  85 CALM      30.03R
CHARLEVOIX     CLEAR     65  60  82 S3        30.01S
FRANKFORT      CLEAR     66  63  88 CALM      29.99R
GAYLORD        CLEAR     64  56  75 CALM      30.01R
GRAYLING       CLEAR     63  60  89 CALM      30.02R
HARBOR SPRINGS CLEAR     65  59  81 CALM      29.98S
HOUGHTON LAKE  CLEAR     64  59  83 CALM      30.02R
MANISTEE       CLEAR     66  63  90 CALM      29.99R
OSCODA         CLEAR     68  56  66 W6        29.97R
ROGERS CITY    CLEAR     64  56  76 SW5       29.98R
TRAVERSE CITY  CLEAR     69  62  78 CALM      29.98R
$$
MIZ007>008-015-260400-
EASTERN UPPER MICHIGAN

CITY           SKY/WX    TMP DP  RH WIND       PRES   REMARKS
KINROSS        CLEAR     64  58  80 SW6       29.96R
MACKINAC ISLAN CLEAR     68  59  73 W6        29.96S
S. S. MARIE    CLEAR     65  59  81 NW3       29.95R
$$
MIZ004>006-011>014-085-260400-
CENTRAL UPPER MICHIGAN

CITY           SKY/WX    TMP DP  RH WIND       PRES   REMARKS
ESCANABA       CLEAR     72  61  68 SE3       29.97R
MENOMINEE      CLEAR    N/A N/A N/A CALM      29.98R
SAWYER-GWINN   CLEAR     68  57  67 W5        30.00S
$$
MIZ001>003-009>011-084-260400-
WESTERN UPPER MICHIGAN

CITY           SKY/WX    TMP DP  RH WIND       PRES   REMARKS
IRON MOUNTAIN  CLEAR     65  57  75 CALM      30.00R
HOUGHTON       CLEAR     69  58  67 W9        29.96R
COPPER HARBOR    N/A     73  57  57 VRB6      29.93R
IRONWOOD       CLEAR     64  63  94 CALM      29.99R
$$

ABBREVIATIONS USED IN REMARKS
   TC - TEMPERATURE IN CELSIUS
  WCI - WIND CHILL INDEX
   HX - HEAT INDEX
  VSB - VISIBILITY





USA.gov is the U.S. government's official web portal to all federal, state and local government web resources and services.